Location: Bukit Setapoh
(2.2500°N, 113.8000°E)
Time: 22:48:43
(UTC+00:00)

SAR-Lupe-4 - Pass Details

Date: 25 July 2021
Orbit: 480 x 486 km, 98.2° (Epoch: 19 September)

Event Time Altitude Azimuth Distance (km) Brightness Sun altitude
Rises 11:32:29 0° 27° (NNE) 2,532 7.2 -13.6°
Reaches altitude 10° 11:34:40 10° 37° (NE) 1,654 6.1 -14.1°
Maximum altitude 11:37:53 32° 102° (ESE) 837 4.2 -14.9°
Enters shadow 11:39:07 25° 141° (SE) 999 4.6 -15.1°
